x

Pt Arena - 19nm North Of Point Arena, Ca (46014) Wave Buoy

2:50am - Sat 27th Aug 2016 All times are PDT. -7 hours from GMT.

  • Sig Wave height 4.9ft
  • Swell Direction
  • Peak Period 10s
  • Average Period 7s
  • Wind
    9mph, 13mph gusts
  • Air Temp 58°f
  • Sea Pressure 1015.1mb
  • Pt Arena - 19nm North Of Point Arena, Ca
  • Pt Arena - 19nm North Of Point Arena, Ca

More Historic Weather Station data

Upgrade to MSW Pro to gain access to the past 30 days of data for over 8000 Wavebouys and Weather Stations around the globe.

Join Pro

Comparision Forecast

View Surf forecast
   
Sat 08/27 2:50am 5ft 10s 7s 9 13 mph 1015.1mb 58f
2:40am  -   -   -  11 16 mph 1015.1mb 58f
2:30am  -   -   -  9 13 mph 1015.1mb 58f
2:20am  -   -   -  7 11 mph 1015.3mb 58f
2:10am  -   -   -  9 13 mph 1015.3mb 58f
2:00am  -   -   -  9 11 mph 1015.1mb 58f
1:50am 5ft 9s 8s 9 13 mph 1015.1mb 58f
1:40am  -   -   -  9 11 mph 1015.1mb 58f
1:30am  -   -   -  9 13 mph 1015.4mb 58f
1:20am  -   -   -  9 11 mph 1015.4mb 58f
1:10am  -   -   -  9 11 mph 1015.4mb 58f
1:00am  -   -   -  9 11 mph 1015.4mb 58f
12:50am 5ft 10s 8s 9 11 mph 1015.4mb 58f
12:40am  -   -   -  7 11 mph 1015.3mb 58f
12:30am  -   -   -  7 11 mph 1015.3mb 58f
12:20am  -   -   -  7 9 mph 1015.3mb 58f
12:10am  -   -   -  9 11 mph 1015.3mb 58f
12:00am  -   -   -  9 11 mph 1015.3mb 58f
Fri 08/26 11:50pm 5ft 9s 7s 9 11 mph 1015.3mb 58f
11:40pm  -   -   -  9 13 mph 1015.3mb 58f
11:30pm  -   -   -  7 11 mph 1015.4mb 58f
11:20pm  -   -   -  7 9 mph 1015.4mb 58f
11:10pm  -   -   -  7 9 mph 1015.4mb 58f
11:00pm  -   -   -  7 9 mph 1015.4mb 58f
10:50pm 5ft 9s 7s 7 9 mph 1015.3mb 58f
10:40pm  -   -   -  7 9 mph 1015.3mb 58f
10:30pm  -   -   -  7 9 mph 1015.1mb 58f
10:20pm  -   -   -  7 9 mph 1015mb 58f
10:10pm  -   -   -  4 9 mph 1015mb 58f
10:00pm  -   -   -  7 9 mph 1015mb 58f
9:50pm 6ft 9s 8s 7
mph
1015mb 58f
9:40pm  -   -   -  7 9 mph 1015mb 58f
9:30pm  -   -   -  7 11 mph 1015mb 58f
9:20pm  -   -   -  7 11 mph 1014.9mb 58f
9:10pm  -   -   -  7 11 mph 1014.8mb 58f
9:00pm  -   -   -  9 11 mph 1014.5mb 58f
8:50pm 6ft 9s 8s 9 13 mph 1014.5mb 58f
8:40pm  -   -   -  9 11 mph 1014.5mb 58f
8:30pm  -   -   -  9 11 mph 1014.5mb 58f
8:20pm  -   -   -  9 11 mph 1014.4mb 58f
8:10pm  -   -   -  7 9 mph 1014.3mb 58f
8:00pm  -   -   -  7 9 mph 1014.1mb 58f
7:50pm 5.5ft 10s 8s 7 9 mph 1014.1mb 58f
7:40pm  -   -   -  7 9 mph 1014mb 58f
7:30pm  -   -   -  7 9 mph 1014mb 58f
7:20pm  -   -   -  7 9 mph 1014mb 58f
7:10pm  -   -   -  7 9 mph 1014mb 58f
7:00pm  -   -   -  7 9 mph 1014mb 58f
6:50pm 6ft 9s 7s 7 9 mph 1014mb 58f
6:40pm  -   -   -  7 9 mph 1014mb 58f
6:30pm  -   -   -  7 9 mph 1013.9mb 58f
6:20pm  -   -   -  7 9 mph 1013.9mb 58f
6:10pm  -   -   -  7 9 mph 1014mb 58f
6:00pm  -   -   -  9 11 mph 1014mb 58f
5:50pm 5.5ft 9s 7s 7 9 mph 1014mb 58f
5:40pm  -   -   -  9
mph
1013.9mb 58f
5:30pm  -   -   -  9 11 mph 1014mb 58f
5:20pm  -   -   -  9 11 mph 1014mb 58f
5:10pm  -   -   -  9 11 mph 1014mb 58f
5:00pm  -   -   -  9 11 mph 1014mb 58f
4:50pm 5ft 9s 7s 11 13 mph 1014mb 58f
4:40pm  -   -   -  11 13 mph 1014.1mb 58f
4:30pm  -   -   -  11 13 mph 1014mb 58f
4:20pm  -   -   -  9 13 mph 1014.1mb 58f
4:10pm  -   -   -  11 13 mph 1014mb 58f
4:00pm  -   -   -  11 13 mph 1014mb 58f
3:50pm 5ft 9s 6s 11 13 mph 1014mb 58f
3:40pm  -   -   -  11 13 mph 1014.1mb 58f
3:30pm  -   -   -  11 13 mph 1014.1mb 58f
3:20pm  -   -   -  11 13 mph 1014.1mb 58f
3:10pm  -   -   -  11 16 mph 1014.3mb 58f
3:00pm  -   -   -  11 13 mph 1014.3mb 58f
2:50pm 4.5ft 9s 6s 11 13 mph 1014.3mb 58f
2:40pm  -   -   -  13 16 mph 1014.4mb 58f
2:30pm  -   -   -  11 16 mph 1014.5mb 58f
2:20pm  -   -   -  11 13 mph 1014.5mb 58f
2:10pm  -   -   -  11 16 mph 1014.5mb 58f
2:00pm  -   -   -  11 13 mph 1014.5mb 58f
1:50pm 4.5ft 15s 6s 11 13 mph 1014.6mb 58f
1:40pm  -   -   -  13 16 mph 1014.6mb 58f
1:30pm  -   -   -  13 16 mph 1014.5mb 58f
1:20pm  -   -   -  11 16 mph 1014.8mb 58f
1:10pm  -   -   -  11 16 mph 1014.8mb 58f
1:00pm  -   -   -  11 13 mph 1014.8mb 58f
12:50pm 4.5ft 9s 7s 11 13 mph 1014.8mb 58f
12:40pm  -   -   -  13 16 mph 1014.8mb 58f
12:30pm  -   -   -  11 16 mph 1014.8mb 58f
12:20pm  -   -   -  11 13 mph 1014.8mb 58f
12:10pm  -   -   -  9 13 mph 1014.6mb 58f
12:00pm  -   -   -  11 13 mph 1014.5mb 58f
11:50am 4.5ft 14s 6s 11 13 mph 1014.5mb 58f
11:40am  -   -   -  11 16 mph 1014.5mb 58f
11:30am  -   -   -  11 13 mph 1014.5mb 58f
11:20am  -   -   -  9 13 mph 1014.5mb 58f
11:10am  -   -   -  11 13 mph 1014.5mb 58f
11:00am  -   -   -  11 16 mph 1014.3mb 58f
10:50am 4.5ft 8s 6s 11 16 mph 1014.1mb 58f
10:40am  -   -   -  13 18 mph 1014mb 58f
10:30am  -   -   -  13 16 mph 1014mb 58f
10:20am  -   -   -  13 18 mph 1013.8mb 58f
10:10am  -   -   -  13 16 mph 1013.6mb 58f
10:00am  -   -   -  13 18 mph 1013.6mb 58f
9:50am 5ft 8s 6s 13 16 mph 1013.5mb 57f
9:40am  -   -   -  13 18 mph 1013.4mb 57f
9:30am  -   -   -  13 18 mph 1013.4mb 57f
9:20am  -   -   -  13 16 mph 1013.3mb 57f
9:10am  -   -   -  13 18 mph 1013.3mb 57f
9:00am  -   -   -  13 18 mph 1013.3mb 57f
8:50am 4.5ft 9s 6s 13 20 mph 1013.1mb 58f
8:40am  -   -   -  13 20 mph 1013.1mb 57f
8:30am  -   -   -  13 18 mph 1013mb 57f
8:20am  -   -   -  16 22 mph 1013mb 57f
8:10am  -   -   -  13 18 mph 1013mb 57f
8:00am  -   -   -  16 20 mph 1012.9mb 57f
7:50am 5ft 9s 7s 11 18 mph 1012.9mb 57f
7:40am  -   -   -  13 20 mph 1012.9mb 57f
7:30am  -   -   -  13 20 mph 1012.9mb 57f
7:20am  -   -   -  13 18 mph 1012.9mb 57f
7:10am  -   -   -  11 16 mph 1012.6mb 57f
7:00am  -   -   -  11 16 mph 1012.6mb 57f
6:50am 5ft 8s 7s 11 16 mph 1012.5mb 56f
6:40am  -   -   -  9 13 mph 1012.5mb 56f
6:30am  -   -   -  9 13 mph 1012.4mb 56f
6:20am  -   -   -  9 11 mph 1012.3mb 56f
6:10am  -   -   -  9 11 mph 1012.1mb 56f
6:00am  -   -   -  9 11 mph 1012.1mb 56f
5:50am 4.5ft 8s 7s 11 13 mph 1012.1mb 57f
5:40am  -   -   -  11 13 mph 1012mb 57f
5:30am  -   -   -  11 16 mph 1012mb 57f
5:20am  -   -   -  11 16 mph 1011.9mb 56f
5:10am  -   -   -  9 13 mph 1012mb 56f
5:00am  -   -   -  9 11 mph 1012mb 56f
4:50am 5ft 8s 7s 9 11 mph 1012mb 56f
4:40am 5ft  -  7s 7 11 mph 1012mb 56f
4:30am  -   -   -  9 11 mph 1012mb 56f
4:20am  -   -   -  9 11 mph 1012mb 56f
4:10am  -   -   -  9 16 mph 1012mb 57f
4:00am  -   -   -  9 13 mph 1012mb 56f
3:50am 4.5ft 8s 7s 9 13 mph 1012mb 56f
3:40am  -   -   -  9 13 mph 1012mb 56f
3:30am  -   -   -  9 13 mph 1012mb 56f
3:20am  -   -   -  9 13 mph 1012mb 56f
3:10am  -   -   -  11 13 mph 1012mb 57f
3:00am  -   -   -  11 13 mph 1012mb 57f
2:50am 4.5ft 8s 7s 11 16 mph 1012mb 57f
2:40am  -   -   -  9 13 mph 1012mb 57f
2:30am  -   -   -  11 13 mph 1012mb 57f
2:20am  -   -   -  11 13 mph 1012mb 56f
2:10am  -   -   -  9 13 mph 1012mb 56f
2:00am  -   -   -  9 11 mph 1012mb 56f
1:50am 4.5ft 8s 7s 9 13 mph 1012mb 56f
1:40am  -   -   -  11 16 mph 1012.1mb 56f
1:30am  -   -   -  9 11 mph 1012.3mb 56f
1:20am  -   -   -  9 13 mph 1012.4mb 56f
1:10am  -   -   -  9 13 mph 1012.4mb 56f
1:00am  -   -   -  9 13 mph 1012.4mb 56f
12:50am 4.5ft 8s 6s 9 11 mph 1012.4mb 56f
12:40am  -   -   -  9 11 mph 1012.5mb 56f
12:30am  -   -   -  9 11 mph 1012.5mb 56f
12:20am  -   -   -  7 11 mph 1012.5mb 56f
12:10am  -   -   -  9 11 mph 1012.5mb 56f
12:00am  -   -   -  9 11 mph 1012.5mb 56f
Thu 08/25 11:50pm 4.5ft 8s 7s 9 11 mph 1012.4mb 56f
11:40pm  -   -   -  9 11 mph 1012.4mb 56f
11:30pm  -   -   -  9 11 mph 1012.4mb 56f
11:20pm  -   -   -  9 11 mph 1012.4mb 56f
11:10pm  -   -   -  11 13 mph 1012.1mb 56f
11:00pm  -   -   -  9 13 mph 1012.3mb 56f
10:50pm 5ft 8s 7s 9 13 mph 1012.4mb 56f
10:40pm  -   -   -  9 13 mph 1012.4mb 57f
10:30pm  -   -   -  9 11 mph 1012.4mb 57f
10:20pm  -   -   -  9 11 mph 1012.4mb 57f
10:10pm  -   -   -  9 13 mph 1012.4mb 57f
10:00pm  -   -   -  9 13 mph 1012.4mb 57f
9:50pm 4.5ft 8s 6s 9 13 mph 1012.4mb 57f
9:40pm  -   -   -  9 13 mph 1012.4mb 57f
9:30pm  -   -   -  9 11 mph 1012.3mb 57f
9:20pm  -   -   -  9 13 mph 1012.4mb 57f
9:10pm  -   -   -  9 13 mph 1012.1mb 57f
9:00pm  -   -   -  9 11 mph 1012mb 57f
8:50pm 5ft 8s 6s 9 11 mph 1012mb 57f
8:40pm  -   -   -  9 11 mph 1012mb 57f
8:30pm  -   -   -  9 11 mph 1012mb 57f
8:20pm  -   -   -  9 11 mph 1012.4mb 57f
8:10pm  -   -   -  9 11 mph 1012mb 57f
8:00pm  -   -   -  7 11 mph 1012mb 57f
7:50pm 4ft 8s 6s 7 9 mph 1012mb 57f
7:40pm 4ft  -  6s 7 9 mph 1012.3mb 57f
7:30pm  -   -   -  7 9 mph 1012.3mb 57f
7:20pm  -   -   -  7 9 mph 1012.3mb 57f
7:10pm  -   -   -  7 9 mph 1012.3mb 57f
7:00pm  -   -   -  7 9 mph 1012.3mb 56f
6:50pm 4.5ft 8s 6s 7 9 mph 1012.3mb 56f
6:40pm  -   -   -  7 9 mph 1012.1mb 56f
6:30pm  -   -   -  7 11 mph 1012.3mb 56f
6:20pm  -   -   -  7 11 mph 1012.3mb 56f
6:10pm  -   -   -  9 11 mph 1012.3mb 56f
6:00pm  -   -   -  9 11 mph 1012.3mb 56f
5:50pm 4.5ft 8s 6s 9 13 mph 1012.4mb 56f
5:40pm  -   -   -  11 13 mph 1012.4mb 56f
5:30pm  -   -   -  9 13 mph 1012.5mb 56f
5:20pm  -   -   -  11 13 mph 1012.5mb 56f
5:10pm  -   -   -  11 13 mph 1012.5mb 56f
5:00pm  -   -   -  11 13 mph 1012.5mb 56f
4:50pm 4ft 7s 6s 11 13 mph 1012.5mb 56f
4:40pm  -   -   -  11 16 mph 1012.5mb 56f
4:30pm  -   -   -  11 13 mph 1012.5mb 56f
4:20pm  -   -   -  11 16 mph 1012.5mb 56f
4:10pm  -   -   -  11 13 mph 1012.6mb 56f
4:00pm  -   -   -  11 13 mph 1012.8mb 56f
3:50pm 4.5ft 8s 6s 11 13 mph 1012.9mb 56f
3:40pm 4.5ft  -  6s 11 13 mph 1012.9mb 56f
3:30pm  -   -   -  11 13 mph 1012.9mb 56f
3:20pm  -   -   -  11 13 mph 1013mb 56f
3:10pm  -   -   -  11 16 mph 1013mb 56f
3:00pm  -   -   -  11 16 mph 1013mb 56f
2:50pm 3.5ft 8s 6s 11 16 mph 1013.1mb 56f
2:40pm 3.5ft  -  6s 11 13 mph 1013.1mb 56f
2:30pm  -   -   -  11 13 mph 1013.1mb 56f
2:20pm  -   -   -  11 16 mph 1013.3mb 56f
2:10pm  -   -   -  13 16 mph 1013.4mb 56f
2:00pm  -   -   -  11 13 mph 1013.4mb 56f
1:50pm 4ft 7s 6s 11 16 mph 1013.5mb 56f
1:40pm  -   -   -  11 13 mph 1013.5mb 56f
1:30pm  -   -   -  11 13 mph 1013.4mb 56f
1:20pm  -   -   -  9 11 mph 1013.5mb 56f
1:10pm  -   -   -  9 11 mph 1013.5mb 56f
1:00pm  -   -   -  9 11 mph 1013.6mb 56f
12:50pm 4ft 7s 6s 11 13 mph 1013.6mb 56f
12:40pm 4ft  -  6s 11 13 mph 1013.9mb 56f
12:30pm  -   -   -  11 13 mph 1013.9mb 55f
12:20pm  -   -   -  11 13 mph 1014mb 55f
12:10pm  -   -   -  11 13 mph 1014mb 55f
12:00pm  -   -   -  11 13 mph 1014.3mb 55f
11:50am 4.5ft 7s 6s 11 13 mph 1014.4mb 55f
11:40am 4.5ft  -  6s 11 13 mph 1014.5mb 55f
11:30am  -   -   -  11 13 mph 1014.5mb 55f
11:20am  -   -   -  9 13 mph 1014.5mb 55f
11:10am  -   -   -  9 11 mph 1014.8mb 55f
11:00am  -   -   -  9 11 mph 1014.8mb 55f
10:50am 4.5ft 6s 6s 9 11 mph 1014.8mb 55f
10:40am  -   -   -  9 11 mph 1014.8mb 54f
10:30am  -   -   -  9 11 mph 1014.6mb 54f
10:20am  -   -   -  9 11 mph 1014.6mb 54f
10:10am  -   -   -  9 11 mph 1014.5mb 54f
10:00am  -   -   -  9 13 mph 1014.6mb 54f
9:50am 5ft 8s 6s 7 9 mph 1014.6mb 54f
9:40am  -   -   -  7 11 mph 1014.6mb 54f
9:30am  -   -   -  7 9 mph 1014.5mb 54f
9:20am  -   -   -  7 9 mph 1014.5mb 54f
9:10am  -   -   -  7 9 mph 1014.6mb 54f
9:00am  -   -   -  7 9 mph 1014.6mb 54f
8:50am 5ft 8s 6s 4 7 mph 1014.6mb 54f
8:40am 5ft  -  6s 4 7 mph 1014.5mb 54f
8:30am  -   -   -  4 9 mph 1014.5mb 54f
8:20am  -   -   -  7 9 mph 1014.6mb 53f
8:10am  -   -   -  4 7 mph 1014.6mb 53f
8:00am  -   -   -  4 7 mph 1014.6mb 53f
7:50am 4.5ft 7s 6s 4 7 mph 1014.5mb 53f
7:40am  -   -   -  4 7 mph 1014.5mb 53f
7:30am  -   -   -  4 7 mph 1014.5mb 53f
7:20am  -   -   -  4 7 mph 1014.4mb 53f
7:10am  -   -   -  4 7 mph 1014.3mb 53f
7:00am  -   -   -  4 7 mph 1014.3mb 53f
6:50am 4.5ft 8s 6s 4 7 mph 1014.3mb 53f
6:40am 4.5ft  -  6s 7
mph
1014.1mb 53f
6:30am  -   -   -  7 9 mph 1014mb 53f
6:20am  -   -   -  7 9 mph 1014mb 53f
6:10am  -   -   -  7 9 mph 1014mb 53f
6:00am  -   -   -  7 9 mph 1014mb 53f
5:50am 4.5ft 8s 6s 7 9 mph 1014mb 53f
5:40am 4.5ft  -  6s 7 9 mph 1014mb 53f
5:30am  -   -   -  7 9 mph 1014mb 53f
5:20am  -   -   -  7 9 mph 1014mb 53f
5:10am  -   -   -  9 11 mph 1014mb 53f
5:00am  -   -   -  9 11 mph 1014mb 53f
4:50am 4.5ft 8s 6s 11
mph
1014.1mb 53f
4:40am  -   -   -  11 13 mph 1014.1mb 53f
4:30am  -   -   -  11 13 mph 1014.1mb 53f
4:20am  -   -   -  11 13 mph 1014.1mb 53f
4:10am  -   -   -  11 13 mph 1014.1mb 53f
4:00am  -   -   -  11 13 mph 1014.3mb 53f
3:50am 5ft 8s 6s 11 16 mph 1014.3mb 53f
3:40am  -   -   -  13 18 mph 1014.4mb 53f
3:30am  -   -   -  13 18 mph 1014.5mb 53f
3:20am  -   -   -  16 18 mph 1014.5mb 53f
3:10am  -   -   -  16 18 mph 1014.5mb 53f
3:00am  -   -   -  13 18 mph 1014.5mb 54f
2:50am 5ft 8s 5s 16 20 mph 1014.5mb 54f
2:40am 5ft  -  5s 16 20 mph 1014.6mb 54f
2:30am  -   -   -  16 20 mph 1014.6mb 54f
2:20am  -   -   -  16 20 mph 1014.8mb 54f
2:10am  -   -   -  16 20 mph 1015mb 54f
2:00am  -   -   -  16 20 mph 1015mb 54f
1:50am 4.5ft 8s 5s 16 20 mph 1015.1mb 54f
1:40am  -   -   -  16 18 mph 1015.3mb 54f
1:30am  -   -   -  13 18 mph 1015.3mb 54f
1:20am  -   -   -  16 20 mph 1015.4mb 54f
1:10am  -   -   -  13 18 mph 1015.5mb 54f
1:00am  -   -   -  13 16 mph 1015.5mb 54f
12:50am 4.5ft 8s 6s 13 16 mph 1015.6mb 54f
12:40am 4.5ft  -  6s 13 18 mph 1015.6mb 54f
12:30am  -   -   -  13 18 mph 1015.6mb 54f
12:20am  -   -   -  11 18 mph 1015.9mb 54f
12:10am  -   -   -  11 16 mph 1016mb 54f
12:00am  -   -   -  11 16 mph 1016.1mb 54f
Wed 08/24 11:50pm 4.5ft 8s 6s 11 16 mph 1016mb 54f
11:40pm  -   -   -  11 16 mph 1016.1mb 54f
11:30pm  -   -   -  11 16 mph 1016.3mb 54f
11:20pm  -   -   -  11 16 mph 1016.4mb 54f
11:10pm  -   -   -  13 16 mph 1016.5mb 54f
11:00pm  -   -   -  11 13 mph 1016.5mb 53f
10:50pm 4.5ft 7s 5s 13 18 mph 1016.5mb 53f
10:40pm  -   -   -  13 16 mph 1016.5mb 53f
10:30pm  -   -   -  13 18 mph 1016.8mb 53f
10:20pm  -   -   -  13 18 mph 1016.8mb 53f
10:10pm  -   -   -  11 16 mph 1016.8mb 53f
10:00pm  -   -   -  11 16 mph 1016.8mb 53f
9:50pm 4.5ft 7s 5s 13 18 mph 1016.9mb 53f
9:40pm  -   -   -  13 18 mph 1016.9mb 53f
9:30pm  -   -   -  13 18 mph 1017mb 53f
9:20pm  -   -   -  13 18 mph 1017mb 53f
9:10pm  -   -   -  13 16 mph 1017mb 53f
9:00pm  -   -   -  13 16 mph 1016.8mb 53f
8:50pm 4.5ft 6s 6s 11 16 mph 1016.6mb 53f
8:40pm  -   -   -  11 16 mph 1016.8mb 54f
8:30pm  -   -   -  11 16 mph 1016.6mb 54f
8:20pm  -   -   -  11 16 mph 1016.5mb 54f
8:10pm  -   -   -  9 13 mph 1016.6mb 54f
8:00pm  -   -   -  11 16 mph 1016.6mb 53f
7:50pm 4.5ft 7s 6s 9 13 mph 1016.5mb 53f
7:40pm  -   -   -  9 13 mph 1016.6mb 53f
7:30pm  -   -   -  11 16 mph 1016.5mb 53f
7:20pm  -   -   -  9 13 mph 1016.6mb 53f
7:10pm  -   -   -  9 11 mph 1016.5mb 53f
7:00pm  -   -   -  9 11 mph 1016.5mb 53f
6:50pm 4.5ft 7s 6s 9 13 mph 1016.5mb 53f
6:40pm  -   -   -  9 11 mph 1016.5mb 53f
6:30pm  -   -   -  7 11 mph 1016.6mb 54f
6:20pm  -   -   -  9 11 mph 1016.9mb 54f
6:10pm  -   -   -  9 11 mph 1017mb 54f
6:00pm  -   -   -  7 11 mph 1017mb 54f
5:50pm 4.5ft 7s 6s 9 11 mph 1017.1mb 54f
5:40pm 4.5ft  -  6s 9 11 mph 1017.3mb 55f
5:30pm  -   -   -  7 11 mph 1017.4mb 55f
5:20pm  -   -   -  7 11 mph 1017.4mb 55f
5:10pm  -   -   -  7 9 mph 1017.5mb 55f
5:00pm  -   -   -  7 11 mph 1017.5mb 55f
4:50pm  -   -   -  7 9 mph 1017.5mb 55f
4:40pm  -   -   -   -  mph 1017.6mb -
4:30pm  -   -   -  7 9 mph 1017.8mb 55f
4:20pm  -   -   -  7 9 mph 1017.9mb 55f
4:10pm  -   -   -  7 11 mph 1018mb 55f
4:00pm  -   -   -  7
mph
1018mb 55f
3:50pm 3.5ft 7s 6s 7 9 mph 1018.1mb 55f
3:40pm  -   -   -  7
mph
1018.3mb 55f
3:30pm  -   -   -  7 9 mph 1018.4mb 55f
3:20pm  -   -   -  4 9 mph 1018.4mb 55f
3:10pm  -   -   -  4 7 mph 1018.5mb 55f
3:00pm  -   -   -  4 9 mph 1018.6mb 55f
2:50pm 3.5ft 8s 6s 4 7 mph 1018.8mb 55f
2:40pm 3.5ft  -  6s 4
mph
1018.9mb 55f
2:30pm  -   -   -  2 4 mph 1018.9mb 55f
2:20pm  -   -   -  4
mph
1019mb 55f
2:10pm  -   -   -  4 7 mph 1019mb 55f
2:00pm  -   -   -  2 7 mph 1019.1mb 55f
1:50pm 4ft 8s 6s 4
mph
1019.4mb 55f
1:40pm 4ft  -  6s 2 7 mph 1019.4mb 55f
1:30pm  -   -   -   -  2 mph 1019.5mb 55f
1:20pm  -   -   -   -  2 mph 1019.5mb 55f
1:10pm  -   -   -   -  2 mph 1019.6mb 54f
1:00pm  -   -   -   -  2 mph 1019.8mb 54f
12:50pm 4ft 8s 6s  -  2 mph 1019.9mb 54f
12:40pm  -   -   -   -  2 mph 1019.9mb 54f
12:30pm  -   -   -   -  mph 1020mb 54f
12:20pm  -   -   -   -  mph 1020mb 54f
12:10pm  -   -   -   -  2 mph 1020mb 54f
12:00pm  -   -   -   -  2 mph 1020.3mb 53f
11:50am 4ft 7s 6s  -  2 mph 1020.4mb 53f
11:40am  -   -   -  2 4 mph 1020.5mb 53f
11:30am  -   -   -  2 7 mph 1020.4mb 53f
11:20am  -   -   -  2 7 mph 1020.5mb 53f
11:10am  -   -   -   -  2 mph 1020.5mb 53f
11:00am  -   -   -  2
mph
1020.5mb 53f
10:50am 4ft 7s 6s 2 4 mph 1020.4mb 53f
10:40am 4ft  -  6s 4 7 mph 1020.4mb 53f
10:30am  -   -   -  2 7 mph 1020.3mb 53f
10:20am  -   -   -  2 4 mph 1020.1mb 52f
10:10am  -   -   -  4 7 mph 1020.3mb 52f
10:00am  -   -   -  4 7 mph 1020.3mb 52f
9:50am 4ft 8s  -  4 9 mph 1020.1mb 52f
9:40am  -   -   -  7 9 mph 1020.1mb 52f
9:30am  -   -   -  4 9 mph 1020mb 52f
9:20am  -   -   -  7 11 mph 1020mb 52f
9:10am  -   -   -  4 9 mph 1019.9mb 52f
9:00am  -   -   -  4 11 mph 1019.9mb 52f
8:50am 4ft 8s 6s 4 9 mph 1019.9mb 52f
8:40am 4ft  -  6s 7 9 mph 1019.8mb 52f
8:30am  -   -   -  4 9 mph 1019.8mb 52f
8:20am  -   -   -  7 9 mph 1019.6mb 52f
8:10am  -   -   -  4 7 mph 1019.6mb 52f
8:00am  -   -   -  7 9 mph 1019.5mb 52f
7:50am 4ft 8s 6s 4 7 mph 1019.5mb 52f
7:40am 4ft  -  6s 2 7 mph 1019.5mb 52f
7:30am  -   -   -  2 4 mph 1019.4mb 52f
7:20am  -   -   -  4 7 mph 1019.3mb 52f
7:10am  -   -   -  4 9 mph 1019.3mb 52f
7:00am  -   -   -  2 7 mph 1019.3mb 52f
6:50am 4ft 13s 6s 7 11 mph 1019.1mb 52f
6:40am  -   -   -  4 9 mph 1019.1mb 52f
6:30am  -   -   -  4 9 mph 1019mb 52f
6:20am  -   -   -  4 7 mph 1019mb 52f
6:10am  -   -   -  4 9 mph 1018.9mb 52f
6:00am  -   -   -   -  mph 1018.8mb -
5:50am  -   -   -  4 9 mph 1018.6mb 52f
5:40am  -   -   -  4 11 mph 1018.5mb 52f
5:30am  -   -   -  4 11 mph 1018.5mb 52f
5:20am  -   -   -  2 9 mph 1018.5mb 52f
5:10am  -   -   -  4 11 mph 1018.6mb 52f
5:00am  -   -   -  4 9 mph 1018.8mb 52f
4:50am 4.5ft 8s 6s 7 9 mph 1018.9mb 52f
4:40am 4.5ft  -  6s 9 11 mph 1018.9mb 52f
4:30am  -   -   -  7 13 mph 1018.8mb 52f
4:20am  -   -   -  9 11 mph 1018.9mb 52f
4:10am  -   -   -  7 11 mph 1018.9mb 52f
4:00am  -   -   -  9 11 mph 1019mb 52f
3:50am 4ft 8s 7s 9 11 mph 1019mb 52f
3:40am  -   -   -  9 13 mph 1019mb 52f
3:30am  -   -   -  7 11 mph 1019.1mb 52f
3:20am  -   -   -  7 13 mph 1019mb 52f
3:10am  -   -   -  9 11 mph 1019.1mb 53f
3:00am  -   -   -  9 13 mph 1019mb 53f
2:50am 3.5ft 8s 6s 9 13 mph 1019mb 53f
2:40am  -   -   -  9 13 mph 1019mb 53f
2:30am  -   -   -  7 9 mph 1019.1mb 53f
2:20am  -   -   -  9 11 mph 1019.1mb 53f
2:10am  -   -   -  7 11 mph 1019.3mb 53f
2:00am  -   -   -  9 13 mph 1019.4mb 53f
1:50am 4ft 8s 7s 9 11 mph 1019.5mb 53f
1:40am  -   -   -  7 9 mph 1019.5mb 53f
1:30am  -   -   -  7 11 mph 1019.5mb 53f
1:20am  -   -   -  9 13 mph 1019.5mb 53f
1:10am  -   -   -  7 9 mph 1019.5mb 53f
1:00am  -   -   -  7 9 mph 1019.5mb 53f
12:50am 3.5ft 8s 7s 7 11 mph 1019.6mb 53f
12:40am  -   -   -  9 11 mph 1019.5mb 53f
12:30am  -   -   -  9 13 mph 1019.5mb 53f
12:20am  -   -   -  9 11 mph 1019.5mb 53f
12:10am  -   -   -  9 11 mph 1019.5mb 53f
12:00am  -   -   -  9 11 mph 1019.6mb 54f
Tue 08/23 11:50pm 4ft 8s 6s 7 11 mph 1019.5mb 54f
11:40pm  -   -   -  7 9 mph 1019.8mb 54f
11:30pm  -   -   -  7 11 mph 1019.8mb 54f
11:20pm  -   -   -  7 11 mph 1019.6mb 53f
11:10pm  -   -   -  9 11 mph 1019.8mb 53f
11:00pm  -   -   -  9 13 mph 1019.8mb 54f
10:50pm 4.5ft 8s 7s 9 11 mph 1019.8mb 54f
10:40pm  -   -   -  7 11 mph 1019.8mb 54f
10:30pm  -   -   -  7 9 mph 1019.9mb 54f
10:20pm  -   -   -  7 9 mph 1020mb 54f
10:10pm  -   -   -  7 11 mph 1019.9mb 54f
10:00pm  -   -   -  7 9 mph 1020mb 54f
9:50pm 4ft 8s 6s 7 9 mph 1020mb 54f
9:40pm  -   -   -  7 9 mph 1020mb 54f
9:30pm  -   -   -  7 9 mph 1019.9mb 54f
9:20pm  -   -   -  7 9 mph 1019.9mb 54f
9:10pm  -   -   -  7 9 mph 1019.9mb 54f
9:00pm  -   -   -  7
mph
1019.8mb 54f
8:50pm 4.5ft 8s 7s 7 9 mph 1019.6mb 54f
8:40pm  -   -   -  7 11 mph 1019.5mb 55f
8:30pm  -   -   -  4 9 mph 1019.5mb 55f
8:20pm  -   -   -  7 9 mph 1019.5mb 55f
8:10pm  -   -   -  4 9 mph 1019.4mb 55f
8:00pm  -   -   -  4 9 mph 1019.3mb 55f
7:50pm 4.5ft 8s 7s 4 7 mph 1019.3mb 55f
7:40pm 4.5ft  -  7s 4 7 mph 1019.1mb 55f
7:30pm  -   -   -  4 7 mph 1019mb 55f
7:20pm  -   -   -  4 7 mph 1019mb 55f
7:10pm  -   -   -  4 7 mph 1019mb 55f
7:00pm  -   -   -  2 7 mph 1019mb 55f
6:50pm 4.5ft 8s 7s 4 7 mph 1019mb 55f
6:40pm  -   -   -  4
mph
1019mb 55f
6:30pm  -   -   -  4 7 mph 1019mb 55f
6:20pm  -   -   -  2 7 mph 1019mb 56f
6:10pm  -   -   -   -  4 mph 1018.9mb 56f
6:00pm  -   -   -  4 7 mph 1018.9mb 56f
5:50pm 4ft 8s 7s 2 4 mph 1018.9mb 56f
5:40pm  -   -   -  2 4 mph 1019mb 56f
5:30pm  -   -   -  2 4 mph 1019mb 56f
5:20pm  -   -   -  2 4 mph 1019mb 56f
5:10pm  -   -   -  2 4 mph 1019mb 56f
5:00pm  -   -   -   -  2 mph 1019mb 56f
4:50pm 4.5ft 8s 7s  -  4 mph 1019mb 56f
4:40pm  -   -   -  2 4 mph 1019mb 56f
4:30pm  -   -   -  4 7 mph 1019mb 56f
4:20pm  -   -   -  2 7 mph 1019.1mb 56f
4:10pm  -   -   -  2 7 mph 1019.3mb 56f
4:00pm  -   -   -  2 4 mph 1019.3mb 56f
3:50pm 4.5ft 8s 7s 4 9 mph 1019.3mb 56f
3:40pm  -   -   -  7 9 mph 1019.3mb 56f
3:30pm  -   -   -  4 7 mph 1019.1mb 56f
3:20pm  -   -   -  4 7 mph 1019.1mb 56f
3:10pm  -   -   -  4 7 mph 1019.1mb 56f
3:00pm  -   -   -  4 9 mph 1019.1mb 56f
2:50pm 4.5ft 8s 7s 4 7 mph 1019.3mb 56f
2:40pm  -   -   -  4 9 mph 1019.4mb 56f
2:30pm  -   -   -  4 7 mph 1019.5mb 56f
2:20pm  -   -   -  4 9 mph 1019.5mb 56f
2:10pm  -   -   -  4 9 mph 1019.5mb 56f
2:00pm  -   -   -  7 11 mph 1019.5mb 56f
1:50pm 4.5ft 8s 7s 7 9 mph 1019.4mb 56f
1:40pm  -   -   -  4 9 mph 1019.5mb 56f
1:30pm  -   -   -  7 9 mph 1019.5mb 56f
1:20pm  -   -   -  7 9 mph 1019.5mb 56f
1:10pm  -   -   -  4 7 mph 1019.5mb 55f
1:00pm  -   -   -  7 9 mph 1019.5mb 55f
12:50pm 4.5ft 8s 7s 4 9 mph 1019.4mb 55f
12:40pm 4.5ft  -  7s 2 4 mph 1019.4mb 55f
12:30pm  -   -   -  4 7 mph 1019.4mb 55f
12:20pm  -   -   -  4 7 mph 1019.4mb 55f
12:10pm  -   -   -  4 9 mph 1019.4mb 55f
12:00pm  -   -   -  7 11 mph 1019.4mb 55f
11:50am 4.5ft 8s 7s 7 9 mph 1019.4mb 55f
11:40am  -   -   -  7 9 mph 1019.4mb 55f
11:30am  -   -   -  4 7 mph 1019.4mb 55f
11:20am  -   -   -  4 9 mph 1019.4mb 55f
11:10am  -   -   -  7 9 mph 1019.4mb 55f
11:00am  -   -   -  7 9 mph 1019.4mb 55f